Regional Weather Roundup
Issued by NWS

Home | Current Version | Previous Version | Graphics & Text | Print | Product List | Glossary On
Versions: 1 2 3 4 5 6 7 8 9 10 11 12 13 14 15 16 17 18 19 20 21 22 23 24 25 26 27 28 29 30 31 32 33 34 35 36 37 38 39 40 41 42 43 44 45 46 47 48 49 50
000
ASUS43 KIND 232300
RWRIN

WEATHER ROUNDUP FOR INDIANA
NATIONAL WEATHER SERVICE INDIANAPOLIS IN
700 PM EDT WED AUG 23 2017

NOTE: "FAIR" INDICATES FEW OR NO CLOUDS BELOW 12,000 FEET WITH NO
SIGNIFICANT WEATHER AND/OR OBSTRUCTIONS TO VISIBILITY.

* - STATION DOES NOT REPORT WEATHER SUCH AS PRECIPITATION OR FOG.

+ - STATION NOT QUALITY CONTROLLED BY THE NATIONAL WEATHER SERVICE.
    USE DATA WITH CAUTION...ESPECIALLY DEWPOINT AND RELATIVE
    HUMIDITY OBSERVATIONS.

INZ001>003-010>013-019-020-240000-
NORTHWEST INDIANA

CITY           SKY/WX    TMP DP  RH WIND       PRES   REMARKS
GARY /AIRPORT/ MOSUNNY   72  54  53 NE10      30.02S
MICHIGAN CITY+ SUNNY     68  54  60 N7        30.03S
MONTICELLO +   CLOUDY    72  53  51 NW6       30.00S
RENSSELAER +   PTSUNNY   73  43  33 W7        30.00F

$$

LMZ046-743>745-240000-
SOUTHERN LAKE MICHIGAN

STATION/POSITION TIME  TEMP    WIND        PRES    WAVE
                       AIR SEA DIR/SP/G            HT
                 (UTC) (F)     (DEG/KT/KT) (MB)    (FT)
BURNS HARBOR     2240   70      50/ 10/ 13 1016.9S
MICHIGAN CITY    2230   68      20/ 11/ 13   N/A
5NW MICH CITY    2250   69 74   50/ 10/ 14   N/A     3

$$

INZ004-005-014>016-021>024-240000-
NORTH CENTRAL INDIANA

CITY           SKY/WX    TMP DP  RH WIND       PRES   REMARKS
ELKHART        MOSUNNY   70  50  49 W14       30.01F
GOSHEN         SUNNY     70  47  43 NW14G23   30.01S
PERU/GRISSOM   PTSUNNY   72  53  51 N5        30.00S
SOUTH BEND     SUNNY     69  53  56 N12       30.02S

$$

INZ006>009-017-018-025>027-240000-
NORTHEAST INDIANA

CITY           SKY/WX    TMP DP  RH WIND       PRES   REMARKS
FORT WAYNE     MOSUNNY   73  50  44 NW9       29.99S
KENDALLVILLE + SUNNY     69  51  53 NW8       30.01S

$$

INZ028-029-035-036-043>045-051>053-240000-
WEST CENTRAL INDIANA

CITY           SKY/WX    TMP DP  RH WIND       PRES   REMARKS
LAFAYETTE      MOSUNNY   74  54  49 NW6       30.00F
TERRE HAUTE    MOSUNNY   76  51  41 N7        30.01S

$$

INZ030>032-037>040-046>048-054>057-064-065-240000-
CENTRAL INDIANA

CITY           SKY/WX    TMP DP  RH WIND       PRES   REMARKS
COLUMBUS       MOSUNNY   75  45  33 NW9       30.01S
GREENWOOD *+   MOSUNNY   91  70  49 NW6       30.02R HX  96
INDIANAPOLIS   MOSUNNY   75  50  41 NW10      30.01S
-EAGLE CREEK   SUNNY     75  49  39 NW9       30.01S
KOKOMO +       CLOUDY    74  55  51 N6        30.01F
MT COMFORT *+  MOSUNNY   73  54  49 N6        30.02S
SHELBYVILLE    MOSUNNY   76  52  43 N6        30.00S

$$

INZ033-034-041-042-049-050-058-059-240000-
EAST CENTRAL INDIANA

CITY           SKY/WX    TMP DP  RH WIND       PRES   REMARKS
MUNCIE         SUNNY     73  53  49 NW6       30.01R
RICHMOND +     SUNNY     72  52  49 NW7       30.01S

$$

INZ060-061-067>069-081>083-085>088-240000-
SOUTHWEST INDIANA

CITY           SKY/WX    TMP DP  RH WIND       PRES   REMARKS
EVANSVILLE     SUNNY     78  53  41 N12       30.00F
HUNTINGBURG +  SUNNY     76  55  48 MISG      30.00S

$$

INZ062-063-066-070>080-084-089>092-240000-
SOUTH CENTRAL AND SOUTHEAST INDIANA

CITY           SKY/WX    TMP DP  RH WIND       PRES   REMARKS
BLOOMINGTON    MOSUNNY   76  50  40 N7        30.01F
MADISON *+     SUNNY     75  52  43 CALM      30.02S
SEYMOUR +      SUNNY     79  50  36 N7        30.00S

$$




USA.gov is the U.S. government's official web portal to all federal, state and local government web resources and services.